Location: Austin
(30.3000°N, 97.7500°W)
Time: 08:33:26
(UTC-06:00)

USA 276 - Pass Details

Date: 12 February 2024
Orbit: 366 x 369 km, 50.0° (Epoch: 12 July)

Event Time Altitude Azimuth Distance (km) Brightness Sun altitude
Rises 18:35:27 0° 303° (WNW) 2,166 6.6 -4.7°
Reaches altitude 10° 18:37:34 10° 292° (WNW) 1,332 5.8 -5.2°
Maximum altitude 18:40:16 31° 228° (SW) 668 4.1 -5.8°
Drops below altitude 10° 18:42:59 10° 164° (SSE) 1,343 4.8 -6.3°
Sets 18:45:08 0° 153° (SSE) 2,187 5.7 -6.8°
